Wetterdaten: Woche 14.03.16 - 20.03.16 (KW11)
Datum Zeit Temp. I. Temp. A. Feuchte I. Feuchte A. Luftdruck Regen Wind Richtung Sonnenschein UV Solar Taupunkt Windchill Windben
14.03.2016 00:00 21,7 C 0,9 C 40 % 83 % 1033,1 hPa 0,0 l/m 5,9 km/h (2 Bft) O-NO 0,00 h 0,0 UV-I 0 W/m -1,7 C -0,0 C 11,2 km/h (2 Bft)
14.03.2016 01:00 21,6 C 0,8 C 40 % 81 % 1033,0 hPa 0,0 l/m 4,6 km/h (1 Bft) O-NO 0,00 h 0,0 UV-I 0 W/m -2,1 C 0,2 C 9,8 km/h (2 Bft)
14.03.2016 02:00 21,4 C 0,6 C 40 % 82 % 1032,9 hPa 0,0 l/m 5,7 km/h (1 Bft) O-NO 0,00 h 0,0 UV-I 0 W/m -2,1 C -0,1 C 10,5 km/h (2 Bft)
14.03.2016 03:00 21,4 C 0,5 C 41 % 79 % 1032,8 hPa 0,0 l/m 4,2 km/h (1 Bft) O-NO 0,00 h 0,0 UV-I 0 W/m -2,6 C -0,1 C 8,5 km/h (2 Bft)
14.03.2016 04:00 21,3 C 0,6 C 41 % 77 % 1032,5 hPa 0,0 l/m 3,8 km/h (1 Bft) O-NO 0,00 h 0,0 UV-I 0 W/m -2,9 C 0,3 C 7,9 km/h (2 Bft)
14.03.2016 05:00 21,3 C 0,4 C 41 % 76 % 1032,5 hPa 0,0 l/m 6,2 km/h (2 Bft) O-NO 0,00 h 0,0 UV-I 0 W/m -3,3 C -0,8 C 12,0 km/h (2 Bft)
14.03.2016 06:00 21,3 C 0,4 C 41 % 75 % 1032,9 hPa 0,0 l/m 7,0 km/h (2 Bft) O-NO 0,00 h 0,0 UV-I 10 W/m -3,5 C -1,3 C 13,4 km/h (3 Bft)
14.03.2016 07:00 21,3 C 0,7 C 39 % 74 % 1033,0 hPa 0,0 l/m 5,3 km/h (1 Bft) O-NO 0,12 h 0,5 UV-I 80 W/m -3,4 C -0,3 C 10,7 km/h (2 Bft)
14.03.2016 08:00 21,3 C 1,6 C 38 % 71 % 1033,0 hPa 0,0 l/m 6,3 km/h (2 Bft) O 0,90 h 0,8 UV-I 199 W/m -3,0 C 0,4 C 12,9 km/h (3 Bft)
14.03.2016 09:00 21,4 C 2,0 C 37 % 70 % 1033,2 hPa 0,0 l/m 6,0 km/h (2 Bft) O 0,68 h 1,2 UV-I 211 W/m -2,9 C 0,9 C 9,6 km/h (2 Bft)
14.03.2016 10:00 21,0 C 3,2 C 34 % 68 % 1033,1 hPa 0,0 l/m 5,9 km/h (2 Bft) O-NO 0,83 h 2,1 UV-I 418 W/m -2,1 C 1,9 C 12,7 km/h (3 Bft)
14.03.2016 11:00 20,1 C 4,7 C 32 % 65 % 1032,8 hPa 0,0 l/m 5,7 km/h (1 Bft) O-NO 1,00 h 2,8 UV-I 581 W/m -1,3 C 3,6 C 11,2 km/h (2 Bft)
14.03.2016 12:00 21,1 C 5,3 C 34 % 61 % 1032,0 hPa 0,0 l/m 3,8 km/h (1 Bft) O 1,00 h 3,0 UV-I 600 W/m -1,5 C 4,9 C 9,0 km/h (2 Bft)
14.03.2016 13:00 21,2 C 6,3 C 33 % 57 % 1031,0 hPa 0,0 l/m 2,8 km/h (1 Bft) O-NO 1,00 h 2,6 UV-I 516 W/m -1,5 C 6,0 C 7,6 km/h (2 Bft)
14.03.2016 14:00 21,7 C 6,9 C 35 % 53 % 1030,3 hPa 0,0 l/m 2,9 km/h (1 Bft) O 1,00 h 2,0 UV-I 448 W/m -2,0 C 6,7 C 7,7 km/h (2 Bft)
14.03.2016 15:00 21,9 C 7,6 C 35 % 49 % 1029,7 hPa 0,0 l/m 3,1 km/h (1 Bft) O-SO 1,00 h 1,3 UV-I 350 W/m -2,3 C 7,3 C 7,9 km/h (2 Bft)
14.03.2016 16:00 21,9 C 7,6 C 34 % 49 % 1029,3 hPa 0,0 l/m 1,1 km/h (1 Bft) O 0,85 h 0,7 UV-I 208 W/m -2,5 C 7,6 C 3,1 km/h (1 Bft)
14.03.2016 17:00 21,6 C 6,6 C 34 % 51 % 1029,1 hPa 0,0 l/m 0,0 km/h (0 Bft) O-NO 0,00 h 0,0 UV-I 45 W/m -2,8 C 6,6 C 0,6 km/h (0 Bft)
14.03.2016 18:00 21,6 C 5,5 C 35 % 55 % 1029,1 hPa 0,0 l/m 0,0 km/h (0 Bft) N 0,00 h 0,0 UV-I 7 W/m -2,8 C 5,5 C 0,2 km/h (0 Bft)
14.03.2016 19:00 21,6 C 3,9 C 35 % 65 % 1028,8 hPa 0,0 l/m 0,5 km/h (0 Bft) N 0,00 h 0,0 UV-I 0 W/m -2,1 C 3,8 C 0,9 km/h (0 Bft)
14.03.2016 20:00 21,4 C 2,5 C 35 % 77 % 1028,6 hPa 0,0 l/m 7,1 km/h (2 Bft) N 0,00 h 0,0 UV-I 0 W/m -1,2 C 1,3 C 11,2 km/h (2 Bft)
14.03.2016 21:00 21,5 C 1,6 C 36 % 80 % 1028,2 hPa 0,0 l/m 5,0 km/h (1 Bft) N 0,00 h 0,0 UV-I 0 W/m -1,4 C 1,3 C 9,3 km/h (2 Bft)
14.03.2016 22:00 21,7 C 1,2 C 36 % 81 % 1027,9 hPa 0,0 l/m 0,5 km/h (0 Bft) N-NO 0,00 h 0,0 UV-I 0 W/m -1,7 C 1,2 C 1,1 km/h (1 Bft)
14.03.2016 23:00 21,8 C 0,3 C 36 % 83 % 1027,7 hPa 0,0 l/m 0,2 km/h (0 Bft) N 0,00 h 0,0 UV-I 0 W/m -2,3 C 0,3 C 0,5 km/h (0 Bft)
15.03.2016 00:00 21,6 C -0,4 C 36 % 86 % 1027,4 hPa 0,0 l/m 0,1 km/h (0 Bft) N 0,00 h 0,0 UV-I 0 W/m -2,5 C -0,4 C 0,7 km/h (0 Bft)
15.03.2016 01:00 21,4 C -0,7 C 37 % 87 % 1026,8 hPa 0,0 l/m 0,0 km/h (0 Bft) N 0,00 h 0,0 UV-I 0 W/m -2,5 C -0,7 C 0,0 km/h (0 Bft)
15.03.2016 02:00 21,3 C -0,8 C 37 % 88 % 1026,1 hPa 0,0 l/m 0,0 km/h (0 Bft) N 0,00 h 0,0 UV-I 0 W/m -2,6 C -0,8 C 0,0 km/h (0 Bft)
15.03.2016 03:00 21,2 C -0,7 C 37 % 87 % 1025,4 hPa 0,0 l/m 0,3 km/h (0 Bft) N 0,00 h 0,0 UV-I 0 W/m -2,6 C -0,7 C 0,8 km/h (0 Bft)
15.03.2016 04:00 21,2 C -0,6 C 38 % 88 % 1024,7 hPa 0,0 l/m 0,0 km/h (0 Bft) N 0,00 h 0,0 UV-I 0 W/m -2,3 C -0,6 C 0,0 km/h (0 Bft)
15.03.2016 05:00 21,2 C -0,1 C 38 % 91 % 1024,2 hPa 0,0 l/m 0,0 km/h (0 Bft) N 0,00 h 0,0 UV-I 0 W/m -1,4 C -0,1 C 0,1 km/h (0 Bft)
15.03.2016 06:00 21,2 C 0,4 C 38 % 93 % 1023,6 hPa 0,2 l/m 0,5 km/h (0 Bft) N 0,00 h 0,0 UV-I 7 W/m -0,6 C 0,4 C 2,2 km/h (1 Bft)
15.03.2016 07:00 21,2 C 0,8 C 38 % 93 % 1023,1 hPa 0,2 l/m 2,1 km/h (1 Bft) N 0,00 h 0,0 UV-I 17 W/m -0,2 C 0,8 C 5,4 km/h (1 Bft)
15.03.2016 08:00 21,3 C 1,1 C 39 % 93 % 1023,0 hPa 0,4 l/m 5,6 km/h (1 Bft) N 0,00 h 0,5 UV-I 52 W/m 0,1 C -0,0 C 8,8 km/h (2 Bft)
15.03.2016 09:00 21,4 C 1,2 C 39 % 93 % 1022,9 hPa 0,0 l/m 11,3 km/h (2 Bft) N-NO 0,00 h 0,0 UV-I 0 W/m 0,2 C -3,1 C 20,9 km/h (4 Bft)
15.03.2016 13:00 21,2 C 3,9 C 36 % 77 % 1023,0 hPa 0,0 l/m 6,3 km/h (2 Bft) N 0,02 h 0,8 UV-I 123 W/m 0,3 C 3,0 C 13,0 km/h (3 Bft)
15.03.2016 14:00 21,4 C 4,4 C 37 % 75 % 1023,1 hPa 0,0 l/m 3,7 km/h (1 Bft) O-NO 0,67 h 1,1 UV-I 231 W/m 0,4 C 3,9 C 8,3 km/h (2 Bft)
15.03.2016 15:00 21,7 C 4,3 C 37 % 73 % 1023,1 hPa 0,0 l/m 3,8 km/h (1 Bft) O-NO 0,60 h 0,9 UV-I 190 W/m -0,1 C 3,9 C 8,6 km/h (2 Bft)
15.03.2016 16:00 21,8 C 5,2 C 36 % 69 % 1023,0 hPa 0,0 l/m 4,8 km/h (1 Bft) N-NO 0,48 h 0,8 UV-I 171 W/m 0,0 C 4,4 C 8,0 km/h (2 Bft)
15.03.2016 17:00 21,7 C 4,0 C 36 % 76 % 1023,3 hPa 0,0 l/m 1,7 km/h (1 Bft) N-NO 0,00 h 0,0 UV-I 12 W/m 0,2 C 4,0 C 3,8 km/h (1 Bft)
15.03.2016 18:00 21,7 C 3,4 C 38 % 78 % 1023,7 hPa 0,0 l/m 6,3 km/h (2 Bft) N-NO 0,00 h 0,0 UV-I 0 W/m -0,0 C 2,4 C 11,0 km/h (2 Bft)
15.03.2016 19:00 21,8 C 2,9 C 38 % 79 % 1024,3 hPa 0,0 l/m 4,5 km/h (1 Bft) N-NO 0,00 h 0,0 UV-I 0 W/m -0,3 C 2,5 C 7,9 km/h (2 Bft)
15.03.2016 20:00 21,8 C 2,1 C 38 % 80 % 1024,8 hPa 0,0 l/m 6,5 km/h (2 Bft) N-NO 0,00 h 0,0 UV-I 0 W/m -0,9 C 0,7 C 11,3 km/h (2 Bft)
15.03.2016 21:00 21,6 C 1,7 C 36 % 81 % 1025,0 hPa 0,0 l/m 8,8 km/h (2 Bft) N-NO 0,00 h 0,0 UV-I 0 W/m -1,3 C -0,6 C 14,5 km/h (3 Bft)
15.03.2016 22:00 21,7 C 1,5 C 37 % 81 % 1025,1 hPa 0,0 l/m 4,4 km/h (1 Bft) N-NO 0,00 h 0,0 UV-I 0 W/m -1,4 C 1,0 C 8,2 km/h (2 Bft)
15.03.2016 23:00 21,7 C 1,5 C 38 % 81 % 1025,3 hPa 0,0 l/m 6,5 km/h (2 Bft) O-NO 0,00 h 0,0 UV-I 0 W/m -1,5 C -0,3 C 13,2 km/h (3 Bft)
16.03.2016 00:00 21,6 C 1,3 C 38 % 80 % 1025,4 hPa 0,0 l/m 8,4 km/h (2 Bft) O-NO 0,00 h 0,0 UV-I 0 W/m -1,8 C -0,9 C 15,2 km/h (3 Bft)
16.03.2016 01:00 21,4 C 1,1 C 38 % 81 % 1025,5 hPa 0,0 l/m 6,4 km/h (2 Bft) O-NO 0,00 h 0,0 UV-I 0 W/m -1,9 C -0,1 C 12,3 km/h (3 Bft)
16.03.2016 02:00 21,3 C 0,9 C 38 % 80 % 1025,6 hPa 0,0 l/m 8,5 km/h (2 Bft) O-NO 0,00 h 0,0 UV-I 0 W/m -2,0 C -1,3 C 14,6 km/h (3 Bft)
16.03.2016 03:00 21,2 C 0,9 C 39 % 82 % 1025,6 hPa 0,0 l/m 7,2 km/h (2 Bft) O-NO 0,00 h 0,0 UV-I 0 W/m -1,7 C -0,7 C 13,3 km/h (3 Bft)
16.03.2016 04:00 21,3 C 1,1 C 39 % 83 % 1025,8 hPa 0,0 l/m 8,8 km/h (2 Bft) O-NO 0,00 h 0,0 UV-I 0 W/m -1,5 C -1,7 C 14,2 km/h (3 Bft)
16.03.2016 05:00 21,2 C 1,0 C 39 % 84 % 1026,1 hPa 0,0 l/m 9,4 km/h (2 Bft) O-NO 0,00 h 0,0 UV-I 0 W/m -1,4 C -1,9 C 16,7 km/h (3 Bft)
16.03.2016 06:00 21,2 C 1,0 C 39 % 84 % 1026,4 hPa 0,0 l/m 9,8 km/h (2 Bft) O-NO 0,00 h 0,0 UV-I 0 W/m -1,4 C -2,2 C 17,0 km/h (3 Bft)
16.03.2016 07:00 21,2 C 1,1 C 39 % 84 % 1026,7 hPa 0,0 l/m 9,1 km/h (2 Bft) O-NO 0,00 h 0,0 UV-I 29 W/m -1,4 C -1,6 C 16,5 km/h (3 Bft)
16.03.2016 08:00 21,4 C 1,3 C 40 % 82 % 1027,3 hPa 0,0 l/m 7,6 km/h (2 Bft) O-NO 0,00 h 0,0 UV-I 58 W/m -1,4 C -0,7 C 14,6 km/h (3 Bft)
16.03.2016 09:00 21,6 C 1,8 C 39 % 81 % 1027,9 hPa 0,0 l/m 6,3 km/h (2 Bft) O-NO 0,00 h 0,6 UV-I 83 W/m -1,2 C 0,5 C 12,4 km/h (3 Bft)
16.03.2016 10:00 21,4 C 2,3 C 38 % 79 % 1028,4 hPa 0,0 l/m 10,5 km/h (2 Bft) O-NO 0,37 h 1,0 UV-I 142 W/m -1,0 C -1,2 C 18,1 km/h (3 Bft)
16.03.2016 11:00 21,5 C 3,9 C 37 % 75 % 1028,4 hPa 0,0 l/m 11,2 km/h (2 Bft) O 1,00 h 2,0 UV-I 394 W/m -0,0 C 0,1 C 21,4 km/h (4 Bft)
16.03.2016 12:00 21,7 C 4,0 C 36 % 74 % 1028,9 hPa 0,0 l/m 8,2 km/h (2 Bft) O 0,77 h 1,7 UV-I 301 W/m -0,2 C 1,9 C 16,7 km/h (3 Bft)
16.03.2016 13:00 21,7 C 3,3 C 35 % 78 % 1029,0 hPa 0,0 l/m 6,7 km/h (2 Bft) O 0,10 h 0,7 UV-I 111 W/m -0,2 C 2,0 C 12,1 km/h (2 Bft)
16.03.2016 14:00 21,4 C 3,7 C 33 % 75 % 1029,1 hPa 0,0 l/m 9,3 km/h (2 Bft) O 0,08 h 0,6 UV-I 97 W/m -0,4 C 1,1 C 15,7 km/h (3 Bft)
16.03.2016 15:00 21,4 C 4,2 C 34 % 70 % 1028,8 hPa 0,0 l/m 6,8 km/h (2 Bft) O 0,35 h 0,8 UV-I 131 W/m -0,8 C 2,6 C 13,9 km/h (3 Bft)
16.03.2016 16:00 21,6 C 3,8 C 35 % 69 % 1028,9 hPa 0,0 l/m 5,6 km/h (1 Bft) O 0,08 h 0,5 UV-I 62 W/m -1,2 C 2,8 C 12,0 km/h (2 Bft)
16.03.2016 17:00 21,4 C 3,8 C 35 % 68 % 1029,1 hPa 0,0 l/m 4,7 km/h (1 Bft) O-NO 0,00 h 0,0 UV-I 26 W/m -1,5 C 3,2 C 10,3 km/h (2 Bft)
16.03.2016 18:00 21,5 C 3,0 C 36 % 72 % 1029,4 hPa 0,0 l/m 5,1 km/h (1 Bft) O-NO 0,00 h 0,0 UV-I 8 W/m -1,6 C 2,3 C 10,7 km/h (2 Bft)
16.03.2016 19:00 21,7 C 2,3 C 37 % 77 % 1029,5 hPa 0,0 l/m 5,4 km/h (1 Bft) O-NO 0,00 h 0,0 UV-I 0 W/m -1,4 C 1,7 C 10,1 km/h (2 Bft)
16.03.2016 20:00 21,6 C 1,9 C 37 % 78 % 1029,6 hPa 0,0 l/m 5,3 km/h (1 Bft) O-NO 0,00 h 0,0 UV-I 0 W/m -1,5 C 1,5 C 10,2 km/h (2 Bft)
16.03.2016 21:00 21,8 C 1,9 C 36 % 80 % 1029,5 hPa 0,0 l/m 4,4 km/h (1 Bft) O-NO 0,00 h 0,0 UV-I 0 W/m -1,3 C 1,6 C 8,0 km/h (2 Bft)
16.03.2016 22:00 21,8 C 2,0 C 37 % 82 % 1029,6 hPa 0,0 l/m 2,0 km/h (1 Bft) O 0,00 h 0,0 UV-I 0 W/m -0,8 C 1,9 C 4,6 km/h (1 Bft)
16.03.2016 23:00 21,6 C 2,4 C 37 % 82 % 1029,5 hPa 0,0 l/m 1,9 km/h (1 Bft) O-NO 0,00 h 0,0 UV-I 0 W/m -0,3 C 2,3 C 5,0 km/h (1 Bft)
17.03.2016 00:00 21,4 C 2,7 C 37 % 81 % 1029,4 hPa 0,0 l/m 5,1 km/h (1 Bft) O-SO 0,00 h 0,0 UV-I 0 W/m -0,1 C 1,6 C 11,0 km/h (2 Bft)
17.03.2016 01:00 21,3 C 2,6 C 37 % 82 % 1029,3 hPa 0,0 l/m 5,2 km/h (1 Bft) O-SO 0,00 h 0,0 UV-I 0 W/m -0,1 C 1,8 C 11,4 km/h (2 Bft)
17.03.2016 02:00 21,2 C 2,3 C 38 % 83 % 1028,8 hPa 0,0 l/m 5,5 km/h (1 Bft) O 0,00 h 0,0 UV-I 0 W/m -0,3 C 1,2 C 11,5 km/h (2 Bft)
17.03.2016 03:00 21,2 C 2,1 C 38 % 84 % 1028,5 hPa 0,0 l/m 9,3 km/h (2 Bft) O 0,00 h 0,0 UV-I 0 W/m -0,4 C -0,6 C 16,3 km/h (3 Bft)
17.03.2016 04:00 21,2 C 1,9 C 38 % 85 % 1028,3 hPa 0,0 l/m 6,5 km/h (2 Bft) O 0,00 h 0,0 UV-I 0 W/m -0,3 C 0,6 C 13,3 km/h (3 Bft)
17.03.2016 05:00 21,2 C 2,0 C 38 % 86 % 1028,4 hPa 0,0 l/m 7,4 km/h (2 Bft) O 0,00 h 0,0 UV-I 0 W/m -0,2 C 0,0 C 13,5 km/h (3 Bft)
17.03.2016 06:00 21,2 C 2,0 C 39 % 86 % 1028,3 hPa 0,0 l/m 4,3 km/h (1 Bft) O-NO 0,00 h 0,0 UV-I 15 W/m -0,1 C 1,4 C 11,2 km/h (2 Bft)
17.03.2016 07:00 21,3 C 2,2 C 39 % 85 % 1028,5 hPa 0,0 l/m 3,9 km/h (1 Bft) O-SO 0,00 h 0,5 UV-I 60 W/m 0,0 C 1,5 C 8,3 km/h (2 Bft)
17.03.2016 08:00 21,4 C 2,7 C 38 % 84 % 1028,7 hPa 0,0 l/m 4,9 km/h (1 Bft) O 0,50 h 0,8 UV-I 186 W/m 0,2 C 2,1 C 9,8 km/h (2 Bft)
17.03.2016 09:00 21,6 C 4,2 C 38 % 79 % 1028,8 hPa 0,0 l/m 3,6 km/h (1 Bft) O-SO 1,00 h 1,5 UV-I 446 W/m 0,9 C 3,6 C 8,6 km/h (2 Bft)
17.03.2016 10:00 21,5 C 5,5 C 38 % 74 % 1028,6 hPa 0,0 l/m 3,8 km/h (1 Bft) O-SO 1,00 h 2,2 UV-I 539 W/m 1,3 C 5,1 C 9,8 km/h (2 Bft)
17.03.2016 11:00 21,6 C 7,9 C 38 % 63 % 1028,0 hPa 0,0 l/m 5,7 km/h (1 Bft) O-SO 1,00 h 2,8 UV-I 610 W/m 1,2 C 7,0 C 12,0 km/h (2 Bft)
17.03.2016 12:00 21,6 C 10,0 C 37 % 52 % 1027,4 hPa 0,0 l/m 6,4 km/h (2 Bft) O-NO 1,00 h 2,8 UV-I 619 W/m 0,6 C 9,0 C 12,0 km/h (2 Bft)
17.03.2016 13:00 21,7 C 11,3 C 37 % 49 % 1026,5 hPa 0,0 l/m 3,2 km/h (1 Bft) O-NO 1,00 h 2,6 UV-I 597 W/m 0,9 C 10,9 C 8,3 km/h (2 Bft)
17.03.2016 14:00 21,9 C 11,9 C 37 % 48 % 1025,8 hPa 0,0 l/m 4,4 km/h (1 Bft) O-NO 1,00 h 2,0 UV-I 503 W/m 1,3 C 11,4 C 10,0 km/h (2 Bft)
17.03.2016 15:00 21,4 C 11,5 C 34 % 49 % 1025,0 hPa 0,0 l/m 3,0 km/h (1 Bft) O-NO 1,00 h 1,3 UV-I 393 W/m 1,1 C 11,1 C 7,3 km/h (2 Bft)
17.03.2016 16:00 20,8 C 10,7 C 33 % 49 % 1024,4 hPa 0,0 l/m 2,2 km/h (1 Bft) O 0,95 h 0,7 UV-I 237 W/m 0,6 C 10,6 C 6,3 km/h (2 Bft)
17.03.2016 17:00 21,1 C 9,9 C 34 % 52 % 1024,2 hPa 0,0 l/m 0,5 km/h (0 Bft) O-SO 0,00 h 0,0 UV-I 64 W/m 0,4 C 9,9 C 2,2 km/h (1 Bft)
17.03.2016 18:00 21,3 C 8,8 C 36 % 56 % 1023,9 hPa 0,0 l/m 0,0 km/h (0 Bft) N 0,00 h 0,0 UV-I 8 W/m 0,5 C 8,8 C 0,0 km/h (0 Bft)
17.03.2016 19:00 21,5 C 6,6 C 36 % 65 % 1023,9 hPa 0,0 l/m 0,0 km/h (0 Bft) N 0,00 h 0,0 UV-I 0 W/m 0,5 C 6,6 C 0,0 km/h (0 Bft)
17.03.2016 20:00 21,4 C 4,4 C 36 % 72 % 1024,0 hPa 0,0 l/m 0,0 km/h (0 Bft) N 0,00 h 0,0 UV-I 0 W/m -0,2 C 4,4 C 0,0 km/h (0 Bft)
17.03.2016 21:00 21,6 C 2,6 C 36 % 78 % 1023,9 hPa 0,0 l/m 0,0 km/h (0 Bft) N 0,00 h 0,0 UV-I 0 W/m -0,8 C 2,6 C 0,0 km/h (0 Bft)
17.03.2016 22:00 21,7 C 1,1 C 36 % 82 % 1023,6 hPa 0,0 l/m 0,0 km/h (0 Bft) N 0,00 h 0,0 UV-I 0 W/m -1,6 C 1,1 C 0,0 km/h (0 Bft)
17.03.2016 23:00 21,7 C -0,0 C 36 % 85 % 1023,4 hPa 0,0 l/m 0,0 km/h (0 Bft) N 0,00 h 0,0 UV-I 0 W/m -2,3 C -0,0 C 0,0 km/h (0 Bft)
18.03.2016 00:00 21,7 C -0,8 C 36 % 87 % 1023,2 hPa 0,0 l/m 0,0 km/h (0 Bft) N 0,00 h 0,0 UV-I 0 W/m -2,7 C -0,8 C 0,0 km/h (0 Bft)
18.03.2016 01:00 21,5 C -1,4 C 37 % 89 % 1022,7 hPa 0,0 l/m 0,0 km/h (0 Bft) N 0,00 h 0,0 UV-I 0 W/m -2,9 C -1,4 C 0,0 km/h (0 Bft)
18.03.2016 02:00 21,3 C -1,8 C 37 % 90 % 1022,3 hPa 0,0 l/m 0,0 km/h (0 Bft) N 0,00 h 0,0 UV-I 0 W/m -3,2 C -1,8 C 0,0 km/h (0 Bft)
18.03.2016 03:00 21,2 C -2,3 C 37 % 91 % 1021,6 hPa 0,0 l/m 0,0 km/h (0 Bft) N 0,00 h 0,0 UV-I 0 W/m -3,5 C -2,3 C 0,0 km/h (0 Bft)
18.03.2016 04:00 21,2 C -2,8 C 37 % 91 % 1021,1 hPa 0,0 l/m 0,0 km/h (0 Bft) N 0,00 h 0,0 UV-I 0 W/m -4,1 C -2,8 C 0,0 km/h (0 Bft)
18.03.2016 05:00 21,2 C -3,3 C 38 % 91 % 1020,7 hPa 0,0 l/m 0,0 km/h (0 Bft) N 0,00 h 0,0 UV-I 0 W/m -4,6 C -3,3 C 0,0 km/h (0 Bft)
18.03.2016 06:00 21,2 C -3,6 C 38 % 91 % 1020,6 hPa 0,0 l/m 0,0 km/h (0 Bft) N 0,00 h 0,0 UV-I 16 W/m -4,9 C -3,6 C 0,0 km/h (0 Bft)
18.03.2016 07:00 21,3 C -2,9 C 38 % 93 % 1020,6 hPa 0,0 l/m 0,0 km/h (0 Bft) N 0,25 h 0,5 UV-I 102 W/m -3,8 C -2,9 C 0,0 km/h (0 Bft)
18.03.2016 08:00 21,5 C 1,2 C 38 % 88 % 1020,5 hPa 0,0 l/m 0,0 km/h (0 Bft) N 1,00 h 0,8 UV-I 290 W/m -0,6 C 1,2 C 0,0 km/h (0 Bft)
18.03.2016 09:00 21,6 C 5,1 C 37 % 78 % 1020,2 hPa 0,0 l/m 0,1 km/h (0 Bft) S 1,00 h 1,5 UV-I 440 W/m 1,6 C 5,1 C 0,6 km/h (0 Bft)
18.03.2016 10:00 21,2 C 8,8 C 35 % 64 % 1019,5 hPa 0,0 l/m 1,4 km/h (1 Bft) W-SW 1,00 h 2,3 UV-I 552 W/m 2,5 C 8,8 C 3,3 km/h (1 Bft)
18.03.2016 11:00 20,4 C 10,9 C 33 % 55 % 1019,0 hPa 0,0 l/m 2,9 km/h (1 Bft) W-SW 1,00 h 2,8 UV-I 613 W/m 2,2 C 10,9 C 6,9 km/h (2 Bft)
18.03.2016 12:00 20,6 C 12,1 C 34 % 51 % 1018,2 hPa 0,0 l/m 6,0 km/h (2 Bft) S 1,00 h 2,8 UV-I 615 W/m 2,4 C 11,3 C 9,0 km/h (2 Bft)
18.03.2016 13:00 21,0 C 12,9 C 34 % 43 % 1017,6 hPa 0,0 l/m 5,1 km/h (1 Bft) W-SW 1,00 h 2,6 UV-I 585 W/m 0,7 C 12,5 C 9,9 km/h (2 Bft)
18.03.2016 14:00 21,1 C 14,5 C 33 % 34 % 1017,1 hPa 0,0 l/m 7,2 km/h (2 Bft) W-NW 1,00 h 2,0 UV-I 510 W/m -1,0 C 13,6 C 14,2 km/h (3 Bft)
18.03.2016 15:00 20,7 C 14,3 C 31 % 39 % 1016,5 hPa 0,0 l/m 5,8 km/h (2 Bft) NW 1,00 h 1,3 UV-I 376 W/m 0,6 C 13,5 C 11,7 km/h (2 Bft)
18.03.2016 16:00 20,4 C 13,5 C 31 % 43 % 1016,4 hPa 0,0 l/m 7,0 km/h (2 Bft) NW 0,92 h 0,7 UV-I 224 W/m 1,3 C 12,4 C 12,8 km/h (3 Bft)
18.03.2016 17:00 20,1 C 12,2 C 32 % 48 % 1016,5 hPa 0,0 l/m 6,1 km/h (2 Bft) W-NW 0,00 h 0,0 UV-I 65 W/m 1,6 C 11,2 C 9,8 km/h (2 Bft)
18.03.2016 18:00 20,8 C 10,8 C 33 % 52 % 1016,8 hPa 0,0 l/m 0,9 km/h (0 Bft) W-NW 0,00 h 0,0 UV-I 11 W/m 1,4 C 10,7 C 2,1 km/h (1 Bft)
18.03.2016 19:00 21,0 C 9,0 C 33 % 58 % 1017,2 hPa 0,0 l/m 0,0 km/h (0 Bft) N 0,00 h 0,0 UV-I 0 W/m 1,1 C 9,0 C 0,0 km/h (0 Bft)
18.03.2016 20:00 21,1 C 6,9 C 34 % 66 % 1017,8 hPa 0,0 l/m 0,2 km/h (0 Bft) N-NW 0,00 h 0,0 UV-I 0 W/m 0,9 C 6,9 C 0,6 km/h (0 Bft)
18.03.2016 21:00 21,1 C 5,0 C 35 % 74 % 1018,2 hPa 0,0 l/m 0,0 km/h (0 Bft) N 0,00 h 0,0 UV-I 0 W/m 0,8 C 5,0 C 0,0 km/h (0 Bft)
18.03.2016 22:00 21,1 C 3,7 C 35 % 79 % 1018,5 hPa 0,0 l/m 0,0 km/h (0 Bft) N 0,00 h 0,0 UV-I 0 W/m 0,4 C 3,7 C 0,0 km/h (0 Bft)
18.03.2016 23:00 20,9 C 2,9 C 35 % 85 % 1018,8 hPa 0,0 l/m 4,8 km/h (1 Bft) N 0,00 h 0,0 UV-I 0 W/m 0,7 C 2,3 C 7,5 km/h (2 Bft)
19.03.2016 00:00 20,9 C 2,8 C 35 % 88 % 1018,9 hPa 0,0 l/m 2,5 km/h (1 Bft) N 0,00 h 0,0 UV-I 0 W/m 1,1 C 2,7 C 4,3 km/h (1 Bft)
19.03.2016 01:00 20,8 C 2,9 C 35 % 91 % 1019,0 hPa 0,0 l/m 3,4 km/h (1 Bft) N 0,00 h 0,0 UV-I 0 W/m 1,6 C 2,7 C 6,3 km/h (2 Bft)
19.03.2016 02:00 20,7 C 3,0 C 35 % 91 % 1018,8 hPa 0,0 l/m 2,5 km/h (1 Bft) N-NW 0,00 h 0,0 UV-I 0 W/m 1,7 C 2,7 C 4,9 km/h (1 Bft)
19.03.2016 03:00 20,7 C 2,9 C 35 % 90 % 1018,4 hPa 0,0 l/m 3,4 km/h (1 Bft) N 0,00 h 0,0 UV-I 0 W/m 1,4 C 2,6 C 6,0 km/h (2 Bft)
19.03.2016 04:00 20,7 C 2,8 C 35 % 90 % 1018,3 hPa 0,0 l/m 1,1 km/h (1 Bft) N 0,00 h 0,0 UV-I 0 W/m 1,3 C 2,7 C 1,8 km/h (1 Bft)
19.03.2016 05:00 20,7 C 2,9 C 35 % 89 % 1018,3 hPa 0,0 l/m 0,0 km/h (0 Bft) N 0,00 h 0,0 UV-I 0 W/m 1,3 C 2,9 C 0,0 km/h (0 Bft)
19.03.2016 06:00 20,7 C 2,9 C 35 % 89 % 1018,3 hPa 0,0 l/m 0,0 km/h (0 Bft) N 0,00 h 0,0 UV-I 11 W/m 1,2 C 2,9 C 0,0 km/h (0 Bft)
19.03.2016 07:00 20,7 C 3,3 C 35 % 88 % 1018,5 hPa 0,0 l/m 0,0 km/h (0 Bft) N 0,00 h 0,0 UV-I 33 W/m 1,6 C 3,3 C 0,0 km/h (0 Bft)
19.03.2016 08:00 20,7 C 3,9 C 35 % 86 % 1018,9 hPa 0,0 l/m 2,1 km/h (1 Bft) N-NO 0,00 h 0,5 UV-I 73 W/m 1,9 C 3,7 C 4,0 km/h (1 Bft)
19.03.2016 09:00 20,7 C 4,5 C 36 % 83 % 1018,9 hPa 0,0 l/m 0,5 km/h (0 Bft) N 0,07 h 0,7 UV-I 108 W/m 1,9 C 4,5 C 0,6 km/h (0 Bft)
19.03.2016 10:00 20,6 C 5,3 C 36 % 79 % 1018,9 hPa 0,0 l/m 1,2 km/h (1 Bft) N 0,20 h 0,9 UV-I 129 W/m 1,8 C 5,2 C 2,8 km/h (1 Bft)
19.03.2016 11:00 20,6 C 5,3 C 35 % 77 % 1019,0 hPa 0,0 l/m 2,5 km/h (1 Bft) N 0,00 h 0,8 UV-I 108 W/m 1,7 C 5,1 C 5,1 km/h (1 Bft)
19.03.2016 12:00 20,6 C 5,1 C 35 % 79 % 1019,2 hPa 0,0 l/m 1,9 km/h (1 Bft) N-NO 0,00 h 0,7 UV-I 87 W/m 1,9 C 5,0 C 3,4 km/h (1 Bft)
19.03.2016 13:00 20,5 C 5,1 C 35 % 80 % 1019,0 hPa 0,0 l/m 0,8 km/h (0 Bft) N-NO 0,00 h 0,7 UV-I 102 W/m 2,0 C 5,1 C 1,6 km/h (1 Bft)
19.03.2016 14:00 20,5 C 5,6 C 35 % 77 % 1018,8 hPa 0,0 l/m 0,3 km/h (0 Bft) N 0,43 h 1,0 UV-I 153 W/m 1,9 C 5,6 C 0,8 km/h (0 Bft)
19.03.2016 15:00 20,6 C 5,6 C 35 % 76 % 1018,7 hPa 0,0 l/m 0,1 km/h (0 Bft) SW 0,00 h 0,7 UV-I 107 W/m 1,7 C 5,6 C 0,4 km/h (0 Bft)
19.03.2016 16:00 20,5 C 5,7 C 35 % 75 % 1018,6 hPa 0,0 l/m 0,3 km/h (0 Bft) N-NO 0,00 h 0,0 UV-I 28 W/m 1,7 C 5,7 C 1,2 km/h (1 Bft)
19.03.2016 17:00 20,4 C 5,3 C 35 % 74 % 1018,8 hPa 0,0 l/m 1,0 km/h (0 Bft) N-NO 0,00 h 0,0 UV-I 15 W/m 1,1 C 5,2 C 2,5 km/h (1 Bft)
19.03.2016 18:00 20,4 C 4,7 C 35 % 76 % 1019,1 hPa 0,0 l/m 2,4 km/h (1 Bft) N-NO 0,00 h 0,0 UV-I 5 W/m 0,8 C 4,6 C 4,9 km/h (1 Bft)
19.03.2016 19:00 20,6 C 4,3 C 36 % 77 % 1019,3 hPa 0,0 l/m 0,5 km/h (0 Bft) N-NO 0,00 h 0,0 UV-I 0 W/m 0,6 C 4,3 C 0,8 km/h (0 Bft)
19.03.2016 20:00 20,7 C 4,1 C 35 % 77 % 1019,4 hPa 0,0 l/m 0,0 km/h (0 Bft) N 0,00 h 0,0 UV-I 0 W/m 0,3 C 4,1 C 0,0 km/h (0 Bft)
19.03.2016 21:00 20,7 C 3,8 C 35 % 78 % 1019,6 hPa 0,0 l/m 0,0 km/h (0 Bft) N 0,00 h 0,0 UV-I 0 W/m 0,4 C 3,8 C 0,0 km/h (0 Bft)
19.03.2016 22:00 20,9 C 3,6 C 35 % 81 % 1019,5 hPa 0,0 l/m 0,0 km/h (0 Bft) N 0,00 h 0,0 UV-I 0 W/m 0,6 C 3,6 C 0,0 km/h (0 Bft)
19.03.2016 23:00 20,9 C 3,4 C 36 % 83 % 1019,5 hPa 0,0 l/m 0,0 km/h (0 Bft) N 0,00 h 0,0 UV-I 0 W/m 0,7 C 3,4 C 0,0 km/h (0 Bft)
20.03.2016 00:00 20,7 C 3,1 C 36 % 84 % 1019,1 hPa 0,0 l/m 0,0 km/h (0 Bft) N 0,00 h 0,0 UV-I 0 W/m 0,7 C 3,1 C 0,0 km/h (0 Bft)
20.03.2016 01:00 20,6 C 3,1 C 36 % 85 % 1018,9 hPa 0,0 l/m 0,1 km/h (0 Bft) W-SW 0,00 h 0,0 UV-I 0 W/m 0,9 C 3,1 C 0,6 km/h (0 Bft)
20.03.2016 02:00 20,6 C 3,1 C 36 % 85 % 1018,6 hPa 0,0 l/m 0,7 km/h (0 Bft) W-SW 0,00 h 0,0 UV-I 0 W/m 0,8 C 3,1 C 2,9 km/h (1 Bft)
20.03.2016 03:00 20,6 C 2,9 C 36 % 82 % 1018,1 hPa 0,0 l/m 2,8 km/h (1 Bft) W 0,00 h 0,0 UV-I 0 W/m 0,1 C 2,7 C 5,4 km/h (1 Bft)
20.03.2016 04:00 20,6 C 2,7 C 36 % 79 % 1017,9 hPa 0,0 l/m 3,5 km/h (1 Bft) NW 0,00 h 0,0 UV-I 0 W/m -0,6 C 2,2 C 7,0 km/h (2 Bft)
20.03.2016 05:00 20,6 C 2,3 C 37 % 79 % 1017,8 hPa 0,0 l/m 2,6 km/h (1 Bft) NW 0,00 h 0,0 UV-I 0 W/m -0,9 C 2,1 C 5,9 km/h (2 Bft)
20.03.2016 06:00 20,6 C 2,0 C 37 % 80 % 1017,8 hPa 0,0 l/m 1,9 km/h (1 Bft) W 0,00 h 0,0 UV-I 9 W/m -1,1 C 1,9 C 5,1 km/h (1 Bft)
20.03.2016 07:00 20,7 C 2,2 C 37 % 80 % 1018,1 hPa 0,0 l/m 5,2 km/h (1 Bft) W 0,00 h 0,0 UV-I 27 W/m -0,9 C 1,4 C 9,6 km/h (2 Bft)
20.03.2016 08:00 20,8 C 2,4 C 37 % 80 % 1018,3 hPa 0,0 l/m 4,9 km/h (1 Bft) W 0,00 h 0,5 UV-I 58 W/m -0,6 C 1,7 C 9,4 km/h (2 Bft)
20.03.2016 09:00 20,9 C 2,8 C 37 % 80 % 1018,4 hPa 0,0 l/m 4,8 km/h (1 Bft) NW 0,00 h 0,5 UV-I 73 W/m -0,3 C 2,1 C 7,6 km/h (2 Bft)
20.03.2016 10:00 20,9 C 2,9 C 36 % 80 % 1018,3 hPa 0,0 l/m 6,8 km/h (2 Bft) W 0,00 h 0,7 UV-I 93 W/m -0,1 C 1,5 C 11,3 km/h (2 Bft)
20.03.2016 11:00 20,9 C 3,0 C 36 % 79 % 1018,0 hPa 0,0 l/m 6,6 km/h (2 Bft) W-SW 0,33 h 1,0 UV-I 143 W/m -0,2 C 1,9 C 9,8 km/h (2 Bft)
20.03.2016 12:00 20,7 C 3,3 C 36 % 77 % 1017,7 hPa 0,0 l/m 6,4 km/h (2 Bft) W-SW 1,00 h 1,2 UV-I 167 W/m -0,3 C 2,2 C 10,7 km/h (2 Bft)
20.03.2016 13:00 21,0 C 3,8 C 36 % 75 % 1017,2 hPa 0,0 l/m 6,2 km/h (2 Bft) W 0,95 h 1,2 UV-I 166 W/m -0,1 C 2,9 C 10,0 km/h (2 Bft)
20.03.2016 14:00 21,3 C 4,3 C 36 % 74 % 1017,0 hPa 0,0 l/m 7,5 km/h (2 Bft) NW 0,00 h 0,7 UV-I 102 W/m 0,0 C 2,8 C 12,2 km/h (2 Bft)
20.03.2016 15:00 21,2 C 4,0 C 36 % 74 % 1016,8 hPa 0,0 l/m 8,1 km/h (2 Bft) NW 0,00 h 0,6 UV-I 96 W/m -0,2 C 2,0 C 13,4 km/h (3 Bft)
20.03.2016 16:00 21,1 C 4,2 C 36 % 73 % 1016,5 hPa 0,0 l/m 3,5 km/h (1 Bft) W 0,00 h 0,5 UV-I 59 W/m -0,2 C 3,8 C 7,1 km/h (2 Bft)
20.03.2016 17:00 21,0 C 4,0 C 36 % 74 % 1016,5 hPa 0,0 l/m 1,1 km/h (1 Bft) W-SW 0,00 h 0,0 UV-I 18 W/m -0,2 C 4,0 C 2,8 km/h (1 Bft)
20.03.2016 18:00 21,0 C 3,8 C 37 % 76 % 1016,6 hPa 0,0 l/m 0,0 km/h (0 Bft) N 0,00 h 0,0 UV-I 5 W/m -0,0 C 3,8 C 0,2 km/h (0 Bft)
20.03.2016 19:00 21,2 C 3,7 C 37 % 78 % 1017,0 hPa 0,0 l/m 0,8 km/h (0 Bft) NW 0,00 h 0,0 UV-I 0 W/m 0,2 C 3,7 C 2,2 km/h (1 Bft)
20.03.2016 20:00 21,1 C 3,8 C 36 % 77 % 1017,1 hPa 0,0 l/m 0,5 km/h (0 Bft) W 0,00 h 0,0 UV-I 0 W/m 0,2 C 3,8 C 1,8 km/h (1 Bft)
20.03.2016 21:00 21,3 C 3,6 C 37 % 79 % 1016,9 hPa 0,0 l/m 0,3 km/h (0 Bft) W 0,00 h 0,0 UV-I 0 W/m 0,2 C 3,6 C 0,9 km/h (0 Bft)
20.03.2016 22:00 21,4 C 3,4 C 37 % 80 % 1016,8 hPa 0,0 l/m 0,2 km/h (0 Bft) W 0,00 h 0,0 UV-I 0 W/m 0,3 C 3,4 C 0,8 km/h (0 Bft)
20.03.2016 23:00 21,2 C 3,3 C 37 % 82 % 1016,9 hPa 0,0 l/m 0,5 km/h (0 Bft) W-SW 0,00 h 0,0 UV-I 0 W/m 0,6 C 3,3 C 1,4 km/h (1 Bft)
Min-Datum _ 14.03.16 18.03.16 14.03.16 18.03.16 18.03.16 - 14.03.16 - - - - 18.03.16 16.03.16 14.03.16
_ Min-Zeit 11:04 06:33 10:57 14:24 16:17 - 01:03 - - - - 06:33 07:16 00:33
Minimum _ 19,2 C -3,7 C 28 % 32 % 1016,3 hPa - 0,0 km/h (0 Bft) - - - - -4,9 C -8,7 C 0,0 km/h (0 Bft)
Max-Datum _ 14.03.16 18.03.16 14.03.16 18.03.16 14.03.16 15.03.16 16.03.16 - 17.03.16 14.03.16 16.03.16 18.03.16 18.03.16 16.03.16
_ Max-Zeit 15:56 14:35 03:12 07:56 09:47 08:15 11:30 - 09:04 12:15 11:42 12:50 14:35 11:25
Maximum _ 22,1 C 15,1 C 41 % 95 % 1033,4 hPa 0,4 l/m 24,1 km/h
O (4 Bft)
- 0,05 h 3,1 UV-I 747 W/m 3,7 C 15,1 C 40,2 km/h
O-NO (6 Bft)
Durchschnitt _ 21,2 C 3,6 C 36 % 76 % 1023,7 hPa #0,8 l/m 3,5 km/h (1 Bft) O-NO #33:30 h 1,3 UV-I 195 W/m -0,5 C 2,9 C 6,7 km/h (2 Bft)